Time,TemperatureF,DewpointF,PressureIn,WindDirection,WindDirectionDegrees,WindSpeedMPH,WindSpeedGustMPH,Humidity,HourlyPrecipIn,Conditions,Clouds,dailyrainin,SoftwareType,DateUTC
2013-02-13 00:00:00,25.2,21.4,29.85,East,86,2.0,4.0,85,0.00,,,0.00,meteohub,2013-02-13 05:00:00,
2013-02-13 00:05:00,25.2,21.4,29.85,SW,224,1.0,5.0,85,0.00,,,0.00,meteohub,2013-02-13 05:05:00,
2013-02-13 00:10:00,25.3,21.4,29.85,South,174,0.0,5.0,85,0.00,,,0.00,meteohub,2013-02-13 05:10:00,
2013-02-13 00:15:00,25.3,21.4,29.85,SE,127,2.0,5.0,85,0.00,,,0.00,meteohub,2013-02-13 05:15:00,
2013-02-13 00:20:00,25.3,21.4,29.85,SE,145,0.0,5.0,85,0.00,,,0.00,meteohub,2013-02-13 05:20:00,
2013-02-13 00:25:00,25.3,21.4,29.85,South,170,1.0,4.0,85,0.00,,,0.00,meteohub,2013-02-13 05:25:00,
2013-02-13 00:30:00,25.3,21.4,29.84,ESE,113,0.0,5.0,85,0.00,,,0.00,meteohub,2013-02-13 05:30:00,
2013-02-13 00:35:00,25.3,21.4,29.84,SSW,199,0.0,5.0,85,0.00,,,0.00,meteohub,2013-02-13 05:35:00,
2013-02-13 00:40:00,25.3,21.4,29.84,ENE,74,3.0,5.0,85,0.00,,,0.00,meteohub,2013-02-13 05:40:00,
2013-02-13 00:45:00,25.3,21.4,29.84,SSE,154,2.0,6.0,85,0.00,,,0.00,meteohub,2013-02-13 05:45:00,
2013-02-13 00:50:00,25.3,21.4,29.84,East,99,3.0,6.0,85,0.00,,,0.00,meteohub,2013-02-13 05:50:00,
2013-02-13 00:55:00,25.2,21.4,29.84,SSW,201,0.0,7.0,85,0.00,,,0.00,meteohub,2013-02-13 05:55:00,
2013-02-13 01:00:00,25.2,21.4,29.84,SSW,199,1.0,7.0,85,0.00,,,0.00,meteohub,2013-02-13 06:00:00,
2013-02-13 01:05:00,25.2,21.6,29.84,East,89,2.0,7.0,86,0.00,,,0.00,meteohub,2013-02-13 06:05:00,
2013-02-13 01:10:00,25.2,21.6,29.83,SSW,193,1.0,6.0,86,0.00,,,0.00,meteohub,2013-02-13 06:10:00,
2013-02-13 01:15:00,25.3,21.7,29.83,South,181,0.0,5.0,86,0.00,,,0.00,meteohub,2013-02-13 06:15:00,
2013-02-13 01:20:00,25.3,21.7,29.83,SSW,203,1.0,5.0,86,0.00,,,0.00,meteohub,2013-02-13 06:20:00,
2013-02-13 01:25:00,25.5,22.3,29.83,South,181,1.0,5.0,87,0.00,,,0.00,meteohub,2013-02-13 06:25:00,
2013-02-13 01:30:00,25.5,21.9,29.83,South,175,2.0,6.0,86,0.00,,,0.00,meteohub,2013-02-13 06:30:00,
2013-02-13 01:36:00,25.7,22.5,29.83,WSW,242,2.0,6.0,87,0.00,,,0.00,meteohub,2013-02-13 06:36:00,
2013-02-13 01:41:00,25.7,22.1,29.83,SE,142,3.0,6.0,86,0.00,,,0.00,meteohub,2013-02-13 06:41:00,
2013-02-13 01:46:00,25.9,22.3,29.83,SW,235,3.0,6.0,86,0.00,,,0.00,meteohub,2013-02-13 06:46:00,
2013-02-13 01:51:00,25.9,22.5,29.83,East,84,2.0,6.0,87,0.00,,,0.00,meteohub,2013-02-13 06:51:00,
2013-02-13 01:56:00,26.1,22.5,29.83,East,100,2.0,6.0,86,0.00,,,0.00,meteohub,2013-02-13 06:56:00,
2013-02-13 02:01:00,26.1,22.5,29.82,SE,142,2.0,8.0,86,0.00,,,0.00,meteohub,2013-02-13 07:01:00,
2013-02-13 02:06:00,26.2,22.6,29.82,NNE,32,1.0,8.0,86,0.00,,,0.00,meteohub,2013-02-13 07:06:00,
2013-02-13 02:11:00,26.2,22.6,29.82,ESE,102,2.0,7.0,86,0.00,,,0.00,meteohub,2013-02-13 07:11:00,
2013-02-13 02:16:00,26.4,23.0,29.81,ENE,67,2.0,6.0,87,0.00,,,0.00,meteohub,2013-02-13 07:16:00,
2013-02-13 02:21:00,26.4,22.8,29.81,ESE,110,1.0,6.0,86,0.00,,,0.00,meteohub,2013-02-13 07:21:00,
2013-02-13 02:26:00,26.4,22.8,29.81,South,178,1.0,6.0,86,0.00,,,0.00,meteohub,2013-02-13 07:26:00,
2013-02-13 02:31:00,26.4,22.8,29.81,SSE,159,2.0,7.0,86,0.00,,,0.00,meteohub,2013-02-13 07:31:00,
2013-02-13 02:36:00,26.6,23.0,29.81,WSW,242,4.0,7.0,86,0.00,,,0.00,meteohub,2013-02-13 07:36:00,
2013-02-13 02:41:00,26.6,23.0,29.81,NNE,20,2.0,7.0,86,0.00,,,0.00,meteohub,2013-02-13 07:41:00,
2013-02-13 02:46:00,26.8,23.2,29.81,SSW,202,1.0,9.0,86,0.00,,,0.00,meteohub,2013-02-13 07:46:00,
2013-02-13 02:51:00,26.8,23.2,29.82,SE,145,3.0,9.0,86,0.00,,,0.00,meteohub,2013-02-13 07:51:00,
2013-02-13 02:56:00,26.8,23.2,29.81,South,189,6.0,9.0,86,0.00,,,0.00,meteohub,2013-02-13 07:56:00,
2013-02-13 03:01:00,26.8,23.2,29.81,NE,34,0.0,9.0,86,0.00,,,0.00,meteohub,2013-02-13 08:01:00,
2013-02-13 03:06:00,27.0,23.5,29.81,SSE,151,1.0,8.0,87,0.00,,,0.00,meteohub,2013-02-13 08:06:00,
2013-02-13 03:11:00,27.0,23.5,29.81,SE,136,2.0,7.0,87,0.00,,,0.00,meteohub,2013-02-13 08:11:00,
2013-02-13 03:16:00,27.0,23.4,29.80,East,90,3.0,6.0,86,0.00,,,0.00,meteohub,2013-02-13 08:16:00,
2013-02-13 03:21:00,27.0,23.5,29.80,ESE,117,0.0,5.0,87,0.00,,,0.00,meteohub,2013-02-13 08:21:00,
2013-02-13 03:26:00,27.1,23.7,29.80,South,183,1.0,5.0,87,0.00,,,0.00,meteohub,2013-02-13 08:26:00,
2013-02-13 03:31:00,27.1,23.7,29.80,East,88,0.0,4.0,87,0.00,,,0.00,meteohub,2013-02-13 08:31:00,
2013-02-13 03:36:00,27.1,23.5,29.80,SSW,213,0.0,3.0,86,0.00,,,0.00,meteohub,2013-02-13 08:36:00,
2013-02-13 03:41:00,27.3,23.9,29.79,ENE,60,1.0,5.0,87,0.00,,,0.00,meteohub,2013-02-13 08:41:00,
2013-02-13 03:46:00,27.3,23.7,29.79,East,79,1.0,5.0,86,0.00,,,0.00,meteohub,2013-02-13 08:46:00,
2013-02-13 03:51:00,27.3,23.7,29.80,ESE,120,2.0,3.0,86,0.00,,,0.00,meteohub,2013-02-13 08:51:00,
2013-02-13 03:56:00,27.5,24.1,29.79,ESE,115,0.0,3.0,87,0.00,,,0.00,meteohub,2013-02-13 08:56:00,
2013-02-13 04:01:00,27.7,24.3,29.79,SW,223,1.0,3.0,87,0.00,,,0.00,meteohub,2013-02-13 09:01:00,
2013-02-13 04:06:00,27.7,24.1,29.79,ESE,123,1.0,3.0,86,0.00,,,0.00,meteohub,2013-02-13 09:06:00,
2013-02-13 04:11:00,27.7,24.1,29.78,SW,226,1.0,4.0,86,0.00,,,0.00,meteohub,2013-02-13 09:11:00,
2013-02-13 04:16:00,27.7,24.1,29.78,ESE,119,0.0,4.0,86,0.00,,,0.00,meteohub,2013-02-13 09:16:00,
2013-02-13 04:21:00,27.9,24.3,29.78,East,88,1.0,4.0,86,0.00,,,0.00,meteohub,2013-02-13 09:21:00,
2013-02-13 04:26:00,27.7,24.1,29.78,SSW,193,1.0,4.0,86,0.00,,,0.00,meteohub,2013-02-13 09:26:00,
2013-02-13 04:31:00,27.7,24.1,29.78,SW,217,0.0,4.0,86,0.00,,,0.00,meteohub,2013-02-13 09:31:00,
2013-02-13 04:36:00,27.7,24.1,29.78,ENE,78,1.0,3.0,86,0.00,,,0.00,meteohub,2013-02-13 09:36:00,
2013-02-13 04:41:00,27.5,24.1,29.78,ENE,75,0.0,3.0,87,0.00,,,0.00,meteohub,2013-02-13 09:41:00,
2013-02-13 04:46:00,27.7,24.3,29.78,SE,141,1.0,3.0,87,0.00,,,0.00,meteohub,2013-02-13 09:46:00,
2013-02-13 04:51:00,27.7,24.3,29.78,NE,50,1.0,4.0,87,0.00,,,0.00,meteohub,2013-02-13 09:51:00,
2013-02-13 04:56:00,27.7,24.3,29.78,SSW,213,0.0,4.0,87,0.00,,,0.00,meteohub,2013-02-13 09:56:00,
2013-02-13 05:01:00,27.7,24.3,29.77,East,86,2.0,4.0,87,0.00,,,0.00,meteohub,2013-02-13 10:01:00,
2013-02-13 05:06:00,27.7,24.3,29.77,South,172,0.0,5.0,87,0.00,,,0.00,meteohub,2013-02-13 10:06:00,
2013-02-13 05:11:00,27.7,24.3,29.77,SE,138,1.0,5.0,87,0.00,,,0.00,meteohub,2013-02-13 10:11:00,
2013-02-13 05:17:00,27.7,24.3,29.77,SSE,155,0.0,5.0,87,0.00,,,0.00,meteohub,2013-02-13 10:17:00,
2013-02-13 05:22:00,27.7,24.3,29.77,SSE,155,2.0,5.0,87,0.00,,,0.00,meteohub,2013-02-13 10:22:00,
2013-02-13 05:27:00,27.9,24.4,29.77,SSE,158,2.0,5.0,87,0.00,,,0.00,meteohub,2013-02-13 10:27:00,
2013-02-13 05:32:00,27.9,24.4,29.76,SSE,161,1.0,5.0,87,0.00,,,0.00,meteohub,2013-02-13 10:32:00,
2013-02-13 05:37:00,27.9,24.4,29.77,South,172,3.0,5.0,87,0.00,,,0.00,meteohub,2013-02-13 10:37:00,
2013-02-13 05:42:00,27.9,24.4,29.77,East,82,0.0,5.0,87,0.00,,,0.00,meteohub,2013-02-13 10:42:00,
2013-02-13 05:47:00,27.9,24.4,29.76,SE,124,0.0,5.0,87,0.00,,,0.00,meteohub,2013-02-13 10:47:00,
2013-02-13 05:52:00,27.9,24.4,29.76,East,89,1.0,4.0,87,0.00,,,0.00,meteohub,2013-02-13 10:52:00,
2013-02-13 05:57:00,28.0,25.0,29.76,SE,132,1.0,4.0,88,0.00,,,0.00,meteohub,2013-02-13 10:57:00,
2013-02-13 06:02:00,27.9,24.4,29.76,South,171,1.0,4.0,87,0.00,,,0.00,meteohub,2013-02-13 11:02:00,
2013-02-13 06:07:00,27.9,24.4,29.75,ESE,107,1.0,4.0,87,0.00,,,0.00,meteohub,2013-02-13 11:07:00,
2013-02-13 06:12:00,28.0,24.6,29.76,ESE,123,2.0,5.0,87,0.00,,,0.00,meteohub,2013-02-13 11:12:00,
2013-02-13 06:17:00,28.0,24.6,29.75,NE,39,1.0,5.0,87,0.00,,,0.00,meteohub,2013-02-13 11:17:00,
2013-02-13 06:22:00,28.2,24.8,29.75,East,91,2.0,5.0,87,0.00,,,0.00,meteohub,2013-02-13 11:22:00,
2013-02-13 06:27:00,28.2,24.8,29.75,South,181,1.0,5.0,87,0.00,,,0.00,meteohub,2013-02-13 11:27:00,
2013-02-13 06:32:00,28.2,24.8,29.74,East,96,3.0,4.0,87,0.00,,,0.00,meteohub,2013-02-13 11:32:00,
2013-02-13 06:37:00,28.4,25.0,29.74,SSW,205,1.0,6.0,87,0.00,,,0.00,meteohub,2013-02-13 11:37:00,
2013-02-13 06:42:00,28.4,25.0,29.74,SE,138,1.0,6.0,87,0.00,,,0.00,meteohub,2013-02-13 11:42:00,
2013-02-13 06:47:00,28.6,25.2,29.74,SE,137,1.0,6.0,87,0.00,,,0.00,meteohub,2013-02-13 11:47:00,
2013-02-13 06:52:00,28.8,25.3,29.74,SE,129,2.0,4.0,87,0.00,,,0.00,meteohub,2013-02-13 11:52:00,
2013-02-13 06:57:00,28.8,25.3,29.74,WSW,238,1.0,6.0,87,0.00,,,0.00,meteohub,2013-02-13 11:57:00,
2013-02-13 07:02:00,28.8,25.3,29.74,SE,133,2.0,6.0,87,0.00,,,0.00,meteohub,2013-02-13 12:02:00,
2013-02-13 07:07:00,28.8,25.3,29.74,NE,39,0.0,6.0,87,0.00,,,0.00,meteohub,2013-02-13 12:07:00,
2013-02-13 07:12:00,28.8,25.3,29.74,South,189,0.0,5.0,87,0.00,,,0.00,meteohub,2013-02-13 12:12:00,
2013-02-13 07:17:00,28.9,25.5,29.73,SSW,213,1.0,5.0,87,0.00,,,0.00,meteohub,2013-02-13 12:17:00,
2013-02-13 07:22:00,28.9,25.5,29.73,East,88,1.0,6.0,87,0.00,,,0.00,meteohub,2013-02-13 12:22:00,
2013-02-13 07:27:00,28.8,25.3,29.73,ENE,65,3.0,6.0,87,0.00,,,0.00,meteohub,2013-02-13 12:27:00,
2013-02-13 07:32:00,28.6,25.2,29.73,SW,227,3.0,6.0,87,0.00,,,0.00,meteohub,2013-02-13 12:32:00,
2013-02-13 07:37:00,28.6,25.2,29.73,SE,126,3.0,6.0,87,0.00,,,0.00,meteohub,2013-02-13 12:37:00,
2013-02-13 07:42:00,28.4,25.0,29.73,SSW,200,0.0,8.0,87,0.00,,,0.00,meteohub,2013-02-13 12:42:00,
2013-02-13 07:47:00,28.2,24.8,29.73,SE,136,2.0,8.0,87,0.00,,,0.00,meteohub,2013-02-13 12:47:00,
2013-02-13 07:52:00,28.2,25.2,29.73,WSW,250,0.0,5.0,88,0.00,,,0.00,meteohub,2013-02-13 12:52:00,
2013-02-13 07:57:00,28.0,25.0,29.73,East,86,3.0,5.0,88,0.00,,,0.00,meteohub,2013-02-13 12:57:00,
2013-02-13 08:02:00,28.0,25.0,29.73,SE,127,0.0,5.0,88,0.00,,,0.00,meteohub,2013-02-13 13:02:00,
2013-02-13 08:07:00,28.0,25.0,29.73,WSW,252,0.0,3.0,88,0.00,,,0.00,meteohub,2013-02-13 13:07:00,
2013-02-13 08:12:00,28.2,25.3,29.73,West,259,1.0,4.0,89,0.00,,,0.00,meteohub,2013-02-13 13:12:00,
2013-02-13 08:17:00,28.6,25.7,29.73,ESE,117,0.0,5.0,89,0.00,,,0.00,meteohub,2013-02-13 13:17:00,
2013-02-13 08:22:00,28.9,26.1,29.73,SSE,147,2.0,5.0,89,0.00,,,0.00,meteohub,2013-02-13 13:22:00,
2013-02-13 08:27:00,29.1,26.2,29.73,SSW,207,1.0,5.0,89,0.00,,,0.00,meteohub,2013-02-13 13:27:00,
2013-02-13 08:32:00,29.5,26.4,29.73,WSW,238,2.0,5.0,88,0.00,,,0.00,meteohub,2013-02-13 13:32:00,
2013-02-13 08:37:00,29.8,26.8,29.73,South,183,2.0,6.0,88,0.00,,,0.00,meteohub,2013-02-13 13:37:00,
2013-02-13 08:42:00,30.0,27.0,29.73,SE,141,1.0,6.0,88,0.00,,,0.00,meteohub,2013-02-13 13:42:00,
2013-02-13 08:47:00,30.0,27.0,29.73,SE,138,1.0,6.0,88,0.00,,,0.00,meteohub,2013-02-13 13:47:00,
2013-02-13 08:52:00,30.2,27.1,29.73,ESE,117,2.0,4.0,88,0.00,,,0.00,meteohub,2013-02-13 13:52:00,
2013-02-13 08:57:00,30.4,27.3,29.73,East,100,2.0,4.0,88,0.00,,,0.00,meteohub,2013-02-13 13:57:00,
2013-02-13 09:02:00,30.6,27.5,29.73,SSE,167,1.0,4.0,88,0.00,,,0.00,meteohub,2013-02-13 14:02:00,
2013-02-13 09:07:00,30.7,27.3,29.73,WSW,242,1.0,6.0,87,0.00,,,0.00,meteohub,2013-02-13 14:07:00,
2013-02-13 09:12:00,30.9,27.5,29.73,SSW,199,1.0,6.0,87,0.00,,,0.00,meteohub,2013-02-13 14:12:00,
2013-02-13 09:17:00,31.1,27.7,29.73,NNE,31,1.0,6.0,87,0.00,,,0.00,meteohub,2013-02-13 14:17:00,
2013-02-13 09:22:00,31.5,28.0,29.73,ENE,71,1.0,6.0,87,0.00,,,0.00,meteohub,2013-02-13 14:22:00,
2013-02-13 09:27:00,31.6,28.2,29.72,SW,219,2.0,5.0,87,0.00,,,0.00,meteohub,2013-02-13 14:27:00,
2013-02-13 09:32:00,31.6,28.2,29.72,ESE,102,3.0,5.0,87,0.00,,,0.00,meteohub,2013-02-13 14:32:00,
2013-02-13 09:37:00,31.5,27.7,29.72,SSE,168,0.0,7.0,86,0.00,,,0.00,meteohub,2013-02-13 14:37:00,
2013-02-13 09:42:00,31.6,28.2,29.72,SSW,210,2.0,7.0,87,0.00,,,0.00,meteohub,2013-02-13 14:42:00,
2013-02-13 09:47:00,31.6,27.9,29.72,SSW,199,1.0,7.0,86,0.00,,,0.00,meteohub,2013-02-13 14:47:00,
2013-02-13 09:52:00,31.8,28.0,29.72,SE,124,3.0,6.0,86,0.00,,,0.00,meteohub,2013-02-13 14:52:00,
2013-02-13 09:57:00,31.8,28.0,29.72,East,89,1.0,6.0,86,0.00,,,0.00,meteohub,2013-02-13 14:57:00,
2013-02-13 10:02:00,32.0,28.2,29.73,ESE,110,1.0,5.0,86,0.00,,,0.00,meteohub,2013-02-13 15:02:00,
2013-02-13 10:07:00,32.0,28.2,29.72,SE,144,2.0,5.0,86,0.00,,,0.00,meteohub,2013-02-13 15:07:00,
2013-02-13 10:12:00,32.2,28.4,29.72,ENE,75,0.0,6.0,86,0.00,,,0.00,meteohub,2013-02-13 15:12:00,
2013-02-13 10:17:00,32.2,28.4,29.72,North,351,2.0,6.0,86,0.00,,,0.00,meteohub,2013-02-13 15:17:00,
2013-02-13 10:22:00,32.2,28.4,29.72,South,179,2.0,6.0,86,0.00,,,0.00,meteohub,2013-02-13 15:22:00,
2013-02-13 10:27:00,32.4,28.6,29.72,NE,53,2.0,5.0,86,0.00,,,0.00,meteohub,2013-02-13 15:27:00,
2013-02-13 10:32:00,32.4,28.4,29.72,NE,44,1.0,6.0,85,0.00,,,0.00,meteohub,2013-02-13 15:32:00,
2013-02-13 10:37:00,32.5,28.6,29.72,West,269,1.0,6.0,85,0.00,,,0.00,meteohub,2013-02-13 15:37:00,
2013-02-13 10:42:00,32.7,28.8,29.72,East,88,0.0,6.0,85,0.00,,,0.00,meteohub,2013-02-13 15:42:00,
2013-02-13 10:47:00,33.1,28.8,29.72,ENE,62,0.0,4.0,84,0.00,,,0.00,meteohub,2013-02-13 15:47:00,
2013-02-13 10:52:00,33.1,28.8,29.71,SE,124,1.0,4.0,84,0.00,,,0.00,meteohub,2013-02-13 15:52:00,
2013-02-13 10:57:00,33.3,28.9,29.71,NW,313,0.0,3.0,84,0.00,,,0.00,meteohub,2013-02-13 15:57:00,
2013-02-13 11:02:00,33.4,29.1,29.71,SSW,212,0.0,3.0,84,0.00,,,0.00,meteohub,2013-02-13 16:02:00,
2013-02-13 11:07:00,33.4,29.1,29.71,West,260,1.0,5.0,84,0.00,,,0.00,meteohub,2013-02-13 16:07:00,
2013-02-13 11:12:00,33.4,29.1,29.71,ENE,75,2.0,5.0,84,0.00,,,0.00,meteohub,2013-02-13 16:12:00,
2013-02-13 11:17:00,33.4,29.1,29.71,SSE,164,0.0,5.0,84,0.00,,,0.00,meteohub,2013-02-13 16:17:00,
2013-02-13 11:22:00,33.6,29.3,29.71,ESE,110,3.0,6.0,84,0.00,,,0.00,meteohub,2013-02-13 16:22:00,
2013-02-13 11:27:00,33.8,29.1,29.71,SSE,167,2.0,6.0,83,0.00,,,0.00,meteohub,2013-02-13 16:27:00,
2013-02-13 11:32:00,33.8,29.1,29.70,ENE,75,9.0,9.0,83,0.00,,,0.00,meteohub,2013-02-13 16:32:00,
2013-02-13 11:37:00,34.0,29.3,29.71,West,268,1.0,9.0,83,0.00,,,0.00,meteohub,2013-02-13 16:37:00,
2013-02-13 11:42:00,34.0,29.3,29.70,SSE,152,6.0,9.0,83,0.00,,,0.00,meteohub,2013-02-13 16:42:00,
2013-02-13 11:47:00,34.3,29.5,29.70,SE,140,4.0,9.0,82,0.00,,,0.00,meteohub,2013-02-13 16:47:00,
2013-02-13 11:52:00,34.2,28.9,29.70,WSW,248,3.0,11.0,81,0.00,,,0.00,meteohub,2013-02-13 16:52:00,
2013-02-13 11:57:00,34.3,29.1,29.70,SW,229,3.0,11.0,81,0.00,,,0.00,meteohub,2013-02-13 16:57:00,
2013-02-13 12:02:00,34.9,29.7,29.70,ESE,120,2.0,11.0,81,0.00,,,0.00,meteohub,2013-02-13 17:02:00,
2013-02-13 12:07:00,34.9,29.3,29.70,WSW,237,7.0,11.0,80,0.00,,,0.00,meteohub,2013-02-13 17:07:00,
2013-02-13 12:12:00,35.1,29.5,29.70,NW,313,2.0,10.0,80,0.00,,,0.00,meteohub,2013-02-13 17:12:00,
2013-02-13 12:17:00,35.1,29.1,29.70,ESE,119,1.0,11.0,79,0.00,,,0.00,meteohub,2013-02-13 17:17:00,
2013-02-13 12:22:00,35.1,29.1,29.70,WSW,257,2.0,14.0,79,0.00,,,0.00,meteohub,2013-02-13 17:22:00,
2013-02-13 12:27:00,35.4,29.5,29.69,WNW,297,1.0,14.0,79,0.00,,,0.00,meteohub,2013-02-13 17:27:00,
2013-02-13 12:32:00,35.8,29.7,29.70,South,189,3.0,10.0,78,0.00,,,0.00,meteohub,2013-02-13 17:32:00,
2013-02-13 12:37:00,35.8,29.8,29.70,NNE,19,3.0,7.0,79,0.00,,,0.00,meteohub,2013-02-13 17:37:00,
2013-02-13 12:42:00,36.0,29.5,29.69,SSW,205,1.0,7.0,77,0.00,,,0.00,meteohub,2013-02-13 17:42:00,
2013-02-13 12:47:00,36.1,29.7,29.69,ENE,64,1.0,6.0,77,0.00,,,0.00,meteohub,2013-02-13 17:47:00,
2013-02-13 12:52:00,36.5,30.0,29.69,East,89,0.0,6.0,77,0.00,,,0.00,meteohub,2013-02-13 17:52:00,
2013-02-13 12:57:00,37.0,30.2,29.69,East,82,0.0,5.0,76,0.00,,,0.00,meteohub,2013-02-13 17:57:00,
2013-02-13 13:02:00,36.9,29.7,29.69,SW,228,2.0,6.0,75,0.01,,,0.01,meteohub,2013-02-13 18:02:00,
2013-02-13 13:07:00,37.0,29.5,29.69,SSE,157,2.0,7.0,74,0.01,,,0.01,meteohub,2013-02-13 18:07:00,
2013-02-13 13:12:00,37.4,30.2,29.69,South,184,1.0,7.0,75,0.01,,,0.01,meteohub,2013-02-13 18:12:00,
2013-02-13 13:17:00,37.6,30.0,29.69,East,90,1.0,7.0,74,0.01,,,0.01,meteohub,2013-02-13 18:17:00,
2013-02-13 13:22:00,37.8,29.8,29.68,WNW,297,7.0,7.0,73,0.01,,,0.01,meteohub,2013-02-13 18:22:00,
2013-02-13 13:27:00,37.8,29.8,29.68,ESE,123,0.0,7.0,73,0.01,,,0.01,meteohub,2013-02-13 18:27:00,
2013-02-13 13:32:00,38.5,30.2,29.68,WSW,255,3.0,7.0,72,0.02,,,0.02,meteohub,2013-02-13 18:32:00,
2013-02-13 13:37:00,38.7,29.7,29.68,WSW,245,3.0,7.0,70,0.02,,,0.02,meteohub,2013-02-13 18:37:00,
2013-02-13 13:42:00,38.5,29.8,29.68,WNW,292,1.0,7.0,71,0.02,,,0.02,meteohub,2013-02-13 18:42:00,
2013-02-13 13:47:00,38.1,29.5,29.68,WNW,299,5.0,7.0,71,0.02,,,0.02,meteohub,2013-02-13 18:47:00,
2013-02-13 13:52:00,37.9,30.0,29.68,SW,236,2.0,7.0,73,0.02,,,0.02,meteohub,2013-02-13 18:52:00,
2013-02-13 13:57:00,38.5,30.6,29.68,WSW,250,0.0,6.0,73,0.02,,,0.03,meteohub,2013-02-13 18:57:00,
2013-02-13 14:02:00,38.5,29.8,29.68,NE,45,1.0,6.0,71,0.02,,,0.03,meteohub,2013-02-13 19:02:00,
2013-02-13 14:07:00,38.5,30.2,29.68,NNE,33,2.0,4.0,72,0.02,,,0.03,meteohub,2013-02-13 19:07:00,
2013-02-13 14:12:00,38.5,29.8,29.68,WNW,300,3.0,5.0,71,0.02,,,0.03,meteohub,2013-02-13 19:12:00,
2013-02-13 14:17:00,38.5,29.8,29.68,NW,304,2.0,5.0,71,0.03,,,0.04,meteohub,2013-02-13 19:17:00,
2013-02-13 14:22:00,38.8,29.8,29.68,NNE,22,1.0,5.0,70,0.03,,,0.04,meteohub,2013-02-13 19:22:00,
2013-02-13 14:27:00,38.8,29.8,29.68,SW,216,1.0,5.0,70,0.03,,,0.04,meteohub,2013-02-13 19:27:00,
2013-02-13 14:32:00,38.7,29.7,29.68,NW,311,5.0,5.0,70,0.02,,,0.04,meteohub,2013-02-13 19:32:00,
2013-02-13 14:37:00,38.5,29.8,29.67,West,273,3.0,5.0,71,0.02,,,0.04,meteohub,2013-02-13 19:37:00,
2013-02-13 14:42:00,38.7,29.7,29.67,WNW,283,1.0,5.0,70,0.02,,,0.04,meteohub,2013-02-13 19:42:00,
2013-02-13 14:47:00,38.8,30.2,29.67,NNE,18,0.0,5.0,71,0.02,,,0.04,meteohub,2013-02-13 19:47:00,
2013-02-13 14:52:00,39.2,30.2,29.67,WSW,257,3.0,5.0,70,0.01,,,0.04,meteohub,2013-02-13 19:52:00,
2013-02-13 14:57:00,38.7,29.3,29.67,SSE,151,1.0,6.0,69,0.02,,,0.05,meteohub,2013-02-13 19:57:00,
2013-02-13 15:02:00,38.7,29.7,29.67,East,85,1.0,6.0,70,0.02,,,0.05,meteohub,2013-02-13 20:02:00,
2013-02-13 15:07:00,38.7,29.3,29.67,West,280,3.0,6.0,69,0.02,,,0.05,meteohub,2013-02-13 20:07:00,
2013-02-13 15:12:00,38.7,29.7,29.67,South,176,3.0,9.0,70,0.01,,,0.05,meteohub,2013-02-13 20:12:00,
2013-02-13 15:17:00,39.0,30.0,29.67,East,93,0.0,9.0,70,0.01,,,0.05,meteohub,2013-02-13 20:17:00,
2013-02-13 15:22:00,38.8,29.8,29.67,NNE,25,1.0,9.0,70,0.01,,,0.05,meteohub,2013-02-13 20:22:00,
2013-02-13 15:27:00,38.8,29.8,29.67,SSW,192,1.0,6.0,70,0.01,,,0.05,meteohub,2013-02-13 20:27:00,
2013-02-13 15:32:00,39.2,30.6,29.67,ENE,72,0.0,6.0,71,0.01,,,0.05,meteohub,2013-02-13 20:32:00,
2013-02-13 15:37:00,39.6,30.2,29.67,NNE,31,0.0,6.0,69,0.01,,,0.05,meteohub,2013-02-13 20:37:00,
2013-02-13 15:42:00,39.7,30.0,29.68,SSW,209,0.0,4.0,68,0.01,,,0.05,meteohub,2013-02-13 20:42:00,
2013-02-13 15:47:00,39.6,29.8,29.68,SSW,203,1.0,4.0,68,0.01,,,0.05,meteohub,2013-02-13 20:47:00,
2013-02-13 15:52:00,39.4,30.0,29.68,West,259,2.0,4.0,69,0.01,,,0.05,meteohub,2013-02-13 20:52:00,
2013-02-13 15:57:00,39.2,29.8,29.68,SSW,195,1.0,4.0,69,0.00,,,0.05,meteohub,2013-02-13 20:57:00,
2013-02-13 16:02:00,39.2,29.8,29.68,SSE,165,0.0,5.0,69,0.00,,,0.05,meteohub,2013-02-13 21:02:00,
2013-02-13 16:07:00,39.4,30.0,29.68,South,171,2.0,5.0,69,0.00,,,0.05,meteohub,2013-02-13 21:07:00,
2013-02-13 16:12:00,39.4,30.0,29.67,SE,124,0.0,5.0,69,0.00,,,0.05,meteohub,2013-02-13 21:12:00,
2013-02-13 16:17:00,39.2,29.8,29.67,SW,226,1.0,3.0,69,0.00,,,0.05,meteohub,2013-02-13 21:17:00,
2013-02-13 16:22:00,39.0,29.7,29.67,SW,230,2.0,3.0,69,0.00,,,0.05,meteohub,2013-02-13 21:22:00,
2013-02-13 16:27:00,39.0,29.7,29.67,West,268,2.0,4.0,69,0.00,,,0.05,meteohub,2013-02-13 21:27:00,
2013-02-13 16:32:00,38.8,29.5,29.67,SSE,155,0.0,4.0,69,0.00,,,0.05,meteohub,2013-02-13 21:32:00,
2013-02-13 16:37:00,38.8,29.8,29.67,SSW,199,1.0,4.0,70,0.00,,,0.05,meteohub,2013-02-13 21:37:00,
2013-02-13 16:42:00,38.7,29.3,29.67,ESE,110,0.0,4.0,69,0.00,,,0.05,meteohub,2013-02-13 21:42:00,
2013-02-13 16:47:00,38.3,29.7,29.67,South,188,1.0,5.0,71,0.00,,,0.05,meteohub,2013-02-13 21:47:00,
2013-02-13 16:52:00,38.3,29.7,29.67,West,262,0.0,6.0,71,0.00,,,0.05,meteohub,2013-02-13 21:52:00,
2013-02-13 16:57:00,38.1,29.5,29.67,South,174,0.0,6.0,71,0.00,,,0.05,meteohub,2013-02-13 21:57:00,
2013-02-13 17:02:00,37.9,29.3,29.67,ENE,78,0.0,5.0,71,0.00,,,0.05,meteohub,2013-02-13 22:02:00,
2013-02-13 17:07:00,37.8,29.5,29.67,ESE,120,0.0,5.0,72,0.00,,,0.05,meteohub,2013-02-13 22:07:00,
2013-02-13 17:12:00,37.6,29.3,29.67,SE,137,2.0,4.0,72,0.00,,,0.05,meteohub,2013-02-13 22:12:00,
2013-02-13 17:17:00,37.4,29.1,29.67,NE,46,1.0,4.0,72,0.00,,,0.05,meteohub,2013-02-13 22:17:00,
2013-02-13 17:22:00,37.2,29.3,29.67,South,181,2.0,3.0,73,0.00,,,0.05,meteohub,2013-02-13 22:22:00,
2013-02-13 17:27:00,37.0,29.1,29.68,SSE,157,2.0,4.0,73,0.00,,,0.05,meteohub,2013-02-13 22:27:00,
2013-02-13 17:32:00,36.9,29.3,29.68,ESE,117,0.0,4.0,74,0.00,,,0.05,meteohub,2013-02-13 22:32:00,
2013-02-13 17:37:00,36.5,28.9,29.68,ESE,122,0.0,4.0,74,0.00,,,0.05,meteohub,2013-02-13 22:37:00,
2013-02-13 17:42:00,36.3,29.5,29.68,ESE,120,0.0,2.0,76,0.00,,,0.05,meteohub,2013-02-13 22:42:00,
2013-02-13 17:47:00,36.0,29.1,29.68,ESE,117,1.0,2.0,76,0.00,,,0.05,meteohub,2013-02-13 22:47:00,
2013-02-13 17:52:00,35.8,28.9,29.68,ESE,117,0.0,1.0,76,0.00,,,0.05,meteohub,2013-02-13 22:52:00,
2013-02-13 17:57:00,35.4,28.9,29.68,WSW,254,0.0,2.0,77,0.00,,,0.05,meteohub,2013-02-13 22:57:00,
2013-02-13 18:02:00,35.1,28.9,29.68,SW,236,1.0,2.0,78,0.00,,,0.05,meteohub,2013-02-13 23:02:00,
2013-02-13 18:07:00,34.5,28.8,29.68,SW,235,0.0,2.0,79,0.00,,,0.05,meteohub,2013-02-13 23:07:00,
2013-02-13 18:12:00,34.5,28.8,29.68,North,2,0.0,3.0,79,0.00,,,0.05,meteohub,2013-02-13 23:12:00,
2013-02-13 18:17:00,34.3,28.8,29.68,SSW,195,1.0,3.0,80,0.00,,,0.05,meteohub,2013-02-13 23:17:00,
2013-02-13 18:22:00,34.0,28.8,29.68,ESE,115,0.0,3.0,81,0.00,,,0.05,meteohub,2013-02-13 23:22:00,
2013-02-13 18:27:00,33.4,28.2,29.68,SE,130,0.0,1.0,81,0.00,,,0.05,meteohub,2013-02-13 23:27:00,
2013-02-13 18:32:00,33.1,28.2,29.69,SE,130,0.0,1.0,82,0.00,,,0.05,meteohub,2013-02-13 23:32:00,
2013-02-13 18:37:00,32.7,28.2,29.69,SE,130,0.0,1.0,83,0.00,,,0.05,meteohub,2013-02-13 23:37:00,
2013-02-13 18:42:00,32.4,28.0,29.69,SE,130,0.0,0.0,84,0.00,,,0.05,meteohub,2013-02-13 23:42:00,
2013-02-13 18:47:00,32.0,27.7,29.69,SE,137,0.0,0.0,84,0.00,,,0.05,meteohub,2013-02-13 23:47:00,
2013-02-13 18:52:00,31.8,27.5,29.69,SE,136,0.0,0.0,84,0.00,,,0.05,meteohub,2013-02-13 23:52:00,
2013-02-13 18:57:00,31.5,27.5,29.69,SE,137,0.0,0.0,85,0.00,,,0.05,meteohub,2013-02-13 23:57:00,
2013-02-13 19:02:00,30.9,27.1,29.69,SE,136,0.0,0.0,86,0.00,,,0.05,meteohub,2013-02-14 00:02:00,
2013-02-13 19:07:00,30.7,27.1,29.69,SE,136,0.0,0.0,86,0.00,,,0.00,meteohub,2013-02-14 00:07:00,
2013-02-13 19:12:00,30.6,27.1,29.69,SE,136,0.0,0.0,87,0.00,,,0.00,meteohub,2013-02-14 00:12:00,
2013-02-13 19:17:00,30.2,26.8,29.69,SE,136,0.0,0.0,87,0.00,,,0.00,meteohub,2013-02-14 00:17:00,
2013-02-13 19:22:00,30.0,27.0,29.69,SE,136,0.0,0.0,88,0.00,,,0.00,meteohub,2013-02-14 00:22:00,
2013-02-13 19:27:00,30.0,27.0,29.69,SE,137,0.0,0.0,88,0.00,,,0.00,meteohub,2013-02-14 00:27:00,
2013-02-13 19:32:00,30.0,27.0,29.69,SE,137,0.0,0.0,88,0.00,,,0.00,meteohub,2013-02-14 00:32:00,
2013-02-13 19:37:00,29.8,26.8,29.69,SE,137,0.0,0.0,88,0.00,,,0.00,meteohub,2013-02-14 00:37:00,
2013-02-13 19:42:00,29.7,26.8,29.69,SE,136,0.0,0.0,89,0.00,,,0.00,meteohub,2013-02-14 00:42:00,
2013-02-13 19:47:00,29.7,26.8,29.69,SE,136,0.0,0.0,89,0.00,,,0.00,meteohub,2013-02-14 00:47:00,
2013-02-13 19:52:00,29.5,26.6,29.69,SE,136,0.0,0.0,89,0.00,,,0.00,meteohub,2013-02-14 00:52:00,
2013-02-13 19:57:00,29.5,27.0,29.69,SE,136,0.0,0.0,90,0.00,,,0.00,meteohub,2013-02-14 00:57:00,
2013-02-13 20:02:00,29.5,27.0,29.69,SE,136,0.0,0.0,90,0.00,,,0.00,meteohub,2013-02-14 01:02:00,
2013-02-13 20:07:00,29.3,26.8,29.69,SE,136,0.0,0.0,90,0.00,,,0.00,meteohub,2013-02-14 01:07:00,
2013-02-13 20:12:00,29.3,26.8,29.69,SE,136,0.0,0.0,90,0.00,,,0.00,meteohub,2013-02-14 01:12:00,
2013-02-13 20:17:00,29.1,26.6,29.69,SE,136,0.0,0.0,90,0.00,,,0.00,meteohub,2013-02-14 01:17:00,
2013-02-13 20:22:00,29.3,27.0,29.69,SE,136,0.0,0.0,91,0.00,,,0.00,meteohub,2013-02-14 01:22:00,
2013-02-13 20:27:00,29.3,27.0,29.69,SE,136,1.0,0.0,91,0.00,,,0.00,meteohub,2013-02-14 01:27:00,
2013-02-13 20:32:00,29.5,27.1,29.69,SE,126,0.0,1.0,91,0.00,,,0.00,meteohub,2013-02-14 01:32:00,
2013-02-13 20:37:00,29.7,27.3,29.69,ESE,119,0.0,1.0,91,0.00,,,0.00,meteohub,2013-02-14 01:37:00,
2013-02-13 20:42:00,29.8,27.5,29.69,ESE,119,0.0,2.0,91,0.00,,,0.00,meteohub,2013-02-14 01:42:00,
2013-02-13 20:47:00,29.8,27.3,29.69,ESE,119,0.0,2.0,90,0.00,,,0.00,meteohub,2013-02-14 01:47:00,
2013-02-13 20:52:00,30.0,27.5,29.69,ESE,119,0.0,2.0,90,0.00,,,0.00,meteohub,2013-02-14 01:52:00,
2013-02-13 20:57:00,30.4,27.9,29.69,ESE,123,0.0,0.0,90,0.00,,,0.00,meteohub,2013-02-14 01:57:00,
2013-02-13 21:02:00,30.4,27.9,29.69,ESE,123,0.0,0.0,90,0.00,,,0.00,meteohub,2013-02-14 02:02:00,
2013-02-13 21:07:00,30.4,27.9,29.69,SSE,167,0.0,0.0,90,0.00,,,0.00,meteohub,2013-02-14 02:07:00,
2013-02-13 21:12:00,30.4,27.9,29.68,SSE,168,0.0,2.0,90,0.00,,,0.00,meteohub,2013-02-14 02:12:00,
2013-02-13 21:17:00,30.4,27.9,29.68,SSE,168,0.0,2.0,90,0.00,,,0.00,meteohub,2013-02-14 02:17:00,
2013-02-13 21:22:00,30.6,28.0,29.68,SSE,167,0.0,1.0,90,0.00,,,0.00,meteohub,2013-02-14 02:22:00,
2013-02-13 21:27:00,30.6,28.0,29.68,South,184,0.0,1.0,90,0.00,,,0.00,meteohub,2013-02-14 02:27:00,
2013-02-13 21:32:00,30.7,27.9,29.69,South,183,0.0,1.0,89,0.00,,,0.00,meteohub,2013-02-14 02:32:00,
2013-02-13 21:37:00,30.7,28.2,29.69,SSW,202,0.0,1.0,90,0.00,,,0.00,meteohub,2013-02-14 02:37:00,
2013-02-13 21:42:00,30.7,28.2,29.68,SE,130,0.0,1.0,90,0.00,,,0.00,meteohub,2013-02-14 02:42:00,
2013-02-13 21:47:00,30.9,28.4,29.68,ESE,107,0.0,1.0,90,0.00,,,0.00,meteohub,2013-02-14 02:47:00,
2013-02-13 21:53:00,31.3,28.4,29.68,SSW,207,0.0,1.0,89,0.00,,,0.00,meteohub,2013-02-14 02:53:00,
2013-02-13 21:58:00,31.5,28.6,29.68,South,181,1.0,4.0,89,0.00,,,0.00,meteohub,2013-02-14 02:58:00,
2013-02-13 22:03:00,32.2,28.8,29.68,ESE,113,1.0,4.0,87,0.00,,,0.00,meteohub,2013-02-14 03:03:00,
2013-02-13 22:08:00,32.4,28.9,29.68,SSE,168,0.0,4.0,87,0.00,,,0.00,meteohub,2013-02-14 03:08:00,
2013-02-13 22:13:00,32.4,28.6,29.68,SSE,167,0.0,3.0,86,0.00,,,0.00,meteohub,2013-02-14 03:13:00,
2013-02-13 22:18:00,32.4,28.9,29.68,SSE,167,0.0,2.0,87,0.00,,,0.00,meteohub,2013-02-14 03:18:00,
2013-02-13 22:23:00,32.2,28.4,29.68,SSE,167,0.0,1.0,86,0.00,,,0.00,meteohub,2013-02-14 03:23:00,
2013-02-13 22:28:00,32.0,28.6,29.68,SSE,150,0.0,1.0,87,0.00,,,0.00,meteohub,2013-02-14 03:28:00,
2013-02-13 22:33:00,31.6,28.2,29.69,SSE,150,0.0,1.0,87,0.00,,,0.00,meteohub,2013-02-14 03:33:00,
2013-02-13 22:38:00,31.6,28.6,29.68,South,181,0.0,1.0,88,0.00,,,0.00,meteohub,2013-02-14 03:38:00,
2013-02-13 22:43:00,31.6,28.2,29.68,SE,129,0.0,3.0,87,0.00,,,0.00,meteohub,2013-02-14 03:43:00,
2013-02-13 22:48:00,31.6,28.2,29.68,SE,143,0.0,3.0,87,0.00,,,0.00,meteohub,2013-02-14 03:48:00,
2013-02-13 22:55:00,31.6,28.2,29.68,South,188,0.0,3.0,87,0.00,,,0.00,meteohub,2013-02-14 03:55:00,
2013-02-13 23:00:00,31.5,28.0,29.68,South,189,0.0,1.0,87,0.00,,,0.00,meteohub,2013-02-14 04:00:00,
2013-02-13 23:05:00,31.5,28.4,29.68,South,175,1.0,0.0,88,0.00,,,0.00,meteohub,2013-02-14 04:05:00,
2013-02-13 23:11:00,31.3,28.2,29.68,SSE,148,0.0,1.0,88,0.00,,,0.00,meteohub,2013-02-14 04:11:00,
2013-02-13 23:16:00,31.1,28.0,29.68,SSE,147,0.0,1.0,88,0.00,,,0.00,meteohub,2013-02-14 04:16:00,
2013-02-13 23:21:00,30.7,27.7,29.68,SSE,147,0.0,1.0,88,0.00,,,0.00,meteohub,2013-02-14 04:21:00,
2013-02-13 23:26:00,30.6,27.7,29.68,SSE,165,0.0,1.0,89,0.00,,,0.00,meteohub,2013-02-14 04:26:00,
2013-02-13 23:31:00,30.4,27.5,29.68,SSE,168,0.0,1.0,89,0.00,,,0.00,meteohub,2013-02-14 04:31:00,
2013-02-13 23:36:00,30.2,27.7,29.68,SSE,167,0.0,1.0,90,0.00,,,0.00,meteohub,2013-02-14 04:36:00,
2013-02-13 23:41:00,30.4,27.9,29.68,SSE,167,0.0,1.0,90,0.00,,,0.00,meteohub,2013-02-14 04:41:00,
2013-02-13 23:46:00,30.6,28.0,29.68,SSW,193,0.0,1.0,90,0.00,,,0.00,meteohub,2013-02-14 04:46:00,
2013-02-13 23:51:00,30.7,28.2,29.68,SSW,193,0.0,1.0,90,0.00,,,0.00,meteohub,2013-02-14 04:51:00,
2013-02-13 23:56:00,30.9,28.4,29.68,SSE,161,0.0,1.0,90,0.00,,,0.00,meteohub,2013-02-14 04:56:00,